F9741 Weather Reports


Display with metric or nautical units.
time (UTC)temp
F
wind
direction
speed
MPH
gust
MPH
rain 1hr
in
rain 24hr
in
rain mn
in
humidity
%
barometer
mb
20260504204245 78 37 4.0 14.0 0.00 0.00 0.00 36 1004.5
20260504203746 78 69 3.0 14.0 0.00 0.00 0.00 34 1004.6
20260504203245 78 97 4.0 14.0 0.00 0.00 0.00 37 1004.5
20260504202746 78 80 4.0 14.0 0.00 0.00 0.00 36 1004.6
20260504202246 79 40 3.0 8.0 0.00 0.00 0.00 37 1004.5
20260504201745 79 49 3.0 16.0 0.00 0.00 0.00 36 1004.4
20260504201245 78 71 3.0 16.0 0.00 0.00 0.00 40 1004.4
20260504200745 78 115 4.0 16.0 0.00 0.00 0.00 39 1004.4
20260504200244 78 50 4.0 16.0 0.00 0.00 0.00 36 1004.3
20260504195743 79 315 4.0 13.0 0.00 0.00 0.00 37 1004.5
20260504195245 79 41 4.0 11.0 0.00 0.00 0.00 38 1004.4
20260504194959 79 64 4.0 11.0 0.00 0.00 0.00 36 1004.5
20260504194240 80 306 4.0 11.0 0.00 0.00 0.00 38 1004.3
20260504193739 80 119 4.0 11.0 0.00 0.00 0.00 38 1004.3
20260504193237 79 342 3.0 11.0 0.00 0.00 0.00 38 1004.2
20260504192740 79 42 3.0 11.0 0.00 0.00 0.00 38 1004.2
20260504192238 80 60 4.0 13.0 0.00 0.00 0.00 39 1004.2
20260504191738 80 86 4.0 13.0 0.00 0.00 0.00 40 1004.2
20260504191458 80 299 3.0 11.0 0.00 0.00 0.00 40 1004.2
20260504190740 80 53 3.0 11.0 0.00 0.00 0.00 38 1004.1
20260504190234 80 288 3.0 10.0 0.00 0.00 0.00 39 1004.1
20260504185736 80 164 3.0 14.0 0.00 0.00 0.00 39 1004.0
20260504185234 81 96 3.0 14.0 0.00 0.00 0.00 36 1003.9
20260504184734 81 55 4.0 14.0 0.00 0.00 0.00 39 1003.8
20260504184234 81 130 4.0 14.0 0.00 0.00 0.00 34 1003.9
20260504184001 82 282 3.0 10.0 0.00 0.00 0.00 34 1003.8
20260504183456 82 163 3.0 12.0 0.00 0.00 0.00 35 1003.8
20260504183006 81 271 3.0 12.0 0.00 0.00 0.00 35 1003.8
20260504182238 82 252 3.0 10.0 0.00 0.00 0.00 35 1003.8
20260504181735 82 279 3.0 10.0 0.00 0.00 0.00 36 1003.8
20260504181234 82 148 3.0 10.0 0.00 0.00 0.00 35 1003.7
20260504180733 81 50 3.0 9.0 0.00 0.00 0.00 35 1003.7
20260504180232 81 267 3.0 10.0 0.00 0.00 0.00 37 1003.7
20260504175953 81 147 3.0 10.0 0.00 0.00 0.00 34 1003.7
20260504175504 81 259 3.0 10.0 0.00 0.00 0.00 37 1003.7
20260504174731 81 211 3.0 10.0 0.00 0.00 0.00 37 1003.8
20260504174230 81 333 3.0 9.0 0.00 0.00 0.00 35 1003.9
20260504173730 81 265 3.0 7.0 0.00 0.00 0.00 36 1003.8
20260504173459 81 296 2.0 9.0 0.00 0.00 0.00 39 1004.0
20260504172729 80 265 2.0 9.0 0.00 0.00 0.00 37 1003.9
20260504172227 80 131 2.0 10.0 0.00 0.00 0.00 40 1004.0
20260504171727 80 235 3.0 10.0 0.00 0.00 0.00 38 1004.0
20260504171444 80 160 3.0 12.0 0.00 0.00 0.00 38 1004.0
20260504170728 79 284 3.0 12.0 0.00 0.00 0.00 38 1004.1
20260504170224 79 324 3.0 12.0 0.00 0.00 0.00 38 1004.1
20260504160208 75 239 4.0 12.0 0.00 0.00 0.00 47 1004.2
20260504151145 69 228 3.0 8.0 0.00 0.00 0.00 53 1004.1
20260504150637 69 239 2.0 8.0 0.00 0.00 0.00 52 1004.1
20260504150132 68 232 2.0 8.0 0.00 0.00 0.00 51 1004.1
20260504141032 65 67 1.0 4.0 0.00 0.00 0.00 55 1004.5
20260504140527 65 202 1.0 4.0 0.00 0.00 0.00 55 1004.5
20260504130414 58 314 0.0 5.0 0.00 0.00 0.00 69 1004.7
20260504110656 47 246 0.0 0.0 0.00 0.00 0.00 81 1004.5
20260504110149 47 246 0.0 0.0 0.00 0.00 0.00 81 1004.6
20260504100342 50 245 0.0 0.0 0.00 0.00 0.00 74 1004.7
20260504090108 52 244 0.0 0.0 0.00 0.00 0.00 70 1004.9
20260504081057 53 244 0.0 0.0 0.00 0.00 0.00 70 1005.7
20260504080827 53 244 0.0 0.0 0.00 0.00 0.00 70 1005.8
20260504050540 55 241 0.0 0.0 0.00 0.00 0.00 66 1008.4
20260504050304 56 241 0.0 0.0 0.00 0.00 0.00 65 1008.5
20260504045537 56 241 0.0 0.0 0.00 0.00 0.00 64 1008.6
20260504045037 56 241 0.0 0.0 0.00 0.00 0.00 63 1008.6
20260504044532 57 241 0.0 0.0 0.00 0.00 0.00 62 1008.6
20260504044033 57 241 0.0 0.0 0.00 0.00 0.00 61 1008.6
20260504043749 58 241 0.0 0.0 0.00 0.00 0.00 61 1008.6
20260504043032 58 241 0.0 0.0 0.00 0.00 0.00 60 1008.9
20260504042534 58 241 0.0 0.0 0.00 0.00 0.00 60 1008.8
20260504042030 58 241 0.0 0.0 0.00 0.00 0.00 60 1008.8
20260504041532 58 241 0.0 0.0 0.00 0.00 0.00 59 1008.9
20260504041303 59 241 0.0 0.0 0.00 0.00 0.00 59 1008.9
20260504040534 59 241 0.0 0.0 0.00 0.00 0.00 58 1009.0
20260504040026 60 241 0.0 0.0 0.00 0.00 0.00 57 1009.1
20260504035527 60 241 0.0 0.0 0.00 0.00 0.00 57 1009.1
20260504035028 61 241 0.0 0.0 0.00 0.00 0.00 55 1009.1
20260504034529 61 241 0.0 0.0 0.00 0.00 0.00 54 1009.2
20260504034028 61 241 0.0 0.0 0.00 0.00 0.00 53 1009.3
20260504033527 61 240 0.0 0.0 0.00 0.00 0.00 53 1009.3
20260504033027 62 240 0.0 0.0 0.00 0.00 0.00 52 1009.4
20260504032526 62 240 0.0 0.0 0.00 0.00 0.00 52 1009.3
20260504032030 62 240 0.0 0.0 0.00 0.00 0.00 51 1009.4
20260504031526 63 240 0.0 0.0 0.00 0.00 0.00 51 1009.3
20260504031254 63 240 0.0 0.0 0.00 0.00 0.00 50 1010.1
20260504030751 63 239 0.0 0.0 0.00 0.00 0.00 51 1009.7
20260504030026 63 239 0.0 0.0 0.00 0.00 0.00 50 1009.6
20260504025522 63 239 0.0 0.0 0.00 0.00 0.00 50 1009.7
20260504025021 63 239 0.0 0.0 0.00 0.00 0.00 50 1009.6
20260504024745 63 239 0.0 0.0 0.00 0.00 0.00 50 1009.6
20260504024018 64 239 0.0 0.0 0.00 0.00 0.00 50 1009.6
20260504023518 64 239 0.0 0.0 0.00 0.00 0.00 49 1009.4
20260504023019 64 239 0.0 0.0 0.00 0.00 0.00 49 1009.6
20260504022517 64 239 0.0 0.0 0.00 0.00 0.00 49 1009.4
20260504022016 64 239 0.0 1.0 0.00 0.00 0.00 49 1009.6
20260504021514 64 239 0.0 1.0 0.00 0.00 0.00 48 1009.4
20260504021009 64 239 0.0 1.0 0.00 0.00 0.00 48 1009.6
20260504020735 65 239 0.0 1.0 0.00 0.00 0.00 48 1009.7
20260504020234 65 239 0.0 1.0 0.00 0.00 0.00 47 1009.8
20260504015457 65 239 0.0 0.0 0.00 0.00 0.00 46 1009.8
20260504015447 66 239 0.0 0.0 0.00 0.00 0.00 45 1009.8
20260504014444 67 239 0.0 0.0 0.00 0.00 0.00 44 1009.8
20260504013938 67 239 0.0 1.0 0.00 0.00 0.00 43 1009.8
20260504013433 68 239 0.0 1.0 0.00 0.00 0.00 43 1009.8
20260504012928 69 239 0.0 1.0 0.00 0.00 0.00 42 1009.7
20260504012420 69 239 0.0 2.0 0.00 0.00 0.00 40 1009.7
20260504011914 69 239 0.0 2.0 0.00 0.00 0.00 40 1009.8
20260504011408 70 239 0.0 5.0 0.00 0.00 0.00 40 1009.7
20260504010903 70 239 1.0 5.0 0.00 0.00 0.00 40 1009.7
20260504010355 70 234 2.0 5.0 0.00 0.00 0.00 42 1009.8
20260504005850 71 234 2.0 5.0 0.00 0.00 0.00 39 1009.9
20260504005345 71 232 1.0 4.0 0.00 0.00 0.00 39 1009.9
20260504004838 72 226 0.0 2.0 0.00 0.00 0.00 36 1010.0
20260504004333 72 226 0.0 2.0 0.00 0.00 0.00 36 1010.1
20260504003826 72 226 0.0 2.0 0.00 0.00 0.00 35 1010.1
20260504003322 73 226 0.0 4.0 0.00 0.00 0.00 35 1010.1
20260504002813 73 226 0.0 4.0 0.00 0.00 0.00 35 1010.1
20260504002309 73 226 1.0 4.0 0.00 0.00 0.00 35 1010.2
20260504001801 74 225 1.0 4.0 0.00 0.00 0.00 35 1010.3
20260504001255 74 260 1.0 4.0 0.00 0.00 0.00 35 1010.3
20260504001009 74 261 1.0 5.0 0.00 0.00 0.00 34 1010.3
20260504000241 75 248 1.0 5.0 0.00 0.00 0.00 36 1010.4
20260503235736 75 286 1.0 5.0 0.00 0.00 0.00 34 1010.5
20260503235231 75 297 1.0 5.0 0.00 0.00 0.00 35 1010.4
20260503234724 76 295 1.0 5.0 0.00 0.00 0.00 34 1010.5
20260503234446 75 267 1.0 3.0 0.00 0.00 0.00 34 1010.4
20260503233711 75 257 1.0 5.0 0.00 0.00 0.00 36 1010.4
20260503233430 75 277 1.0 5.0 0.00 0.00 0.00 34 1010.6
20260503232700 75 230 1.0 5.0 0.00 0.00 0.00 38 1010.6
20260503232427 75 239 2.0 6.0 0.00 0.00 0.00 34 1010.6
20260503232144 75 236 1.0 6.0 0.00 0.00 0.00 36 1010.6
20260503231141 75 238 2.0 10.0 0.00 0.00 0.00 36 1010.7
20260503230635 75 343 2.0 10.0 0.00 0.00 0.00 36 1010.6
20260503230129 75 239 1.0 5.0 0.00 0.00 0.00 35 1010.6
20260503225625 75 239 2.0 7.0 0.00 0.00 0.00 35 1010.7
20260503225120 75 218 2.0 7.0 0.00 0.00 0.00 35 1010.7
20260503224842 75 167 3.0 7.0 0.00 0.00 0.00 35 1010.7
20260503224107 75 234 3.0 9.0 0.00 0.00 0.00 35 1010.7
20260503223559 75 236 3.0 9.0 0.00 0.00 0.00 35 1010.7
20260503223054 75 240 4.0 9.0 0.00 0.00 0.00 36 1010.7
20260503222549 75 217 4.0 9.0 0.00 0.00 0.00 37 1010.8
20260503222043 75 242 3.0 8.0 0.00 0.00 0.00 35 1010.8
20260503221757 75 225 3.0 10.0 0.00 0.00 0.00 35 1010.8
20260503221031 75 229 3.0 10.0 0.00 0.00 0.00 36 1011.0
20260503220525 76 236 2.0 8.0 0.00 0.00 0.00 37 1011.0
20260503220242 75 228 3.0 8.0 0.00 0.00 0.00 38 1011.0
20260503215512 75 304 2.0 8.0 0.00 0.00 0.00 37 1010.9
20260503215007 76 66 1.0 4.0 0.00 0.00 0.00 35 1011.0
20260503214501 76 69 1.0 8.0 0.00 0.00 0.00 33 1011.0
20260503213955 77 271 1.0 8.0 0.00 0.00 0.00 34 1011.2
20260503213448 77 298 2.0 8.0 0.00 0.00 0.00 35 1011.3
20260503213211 77 236 2.0 8.0 0.00 0.00 0.00 36 1011.5
20260503212436 76 244 2.0 6.0 0.00 0.00 0.00 36 1011.4
20260503211930 76 203 2.0 7.0 0.00 0.00 0.00 36 1011.5
20260503211424 76 128 2.0 7.0 0.00 0.00 0.00 34 1011.5
20260503210917 76 286 2.0 7.0 0.00 0.00 0.00 36 1011.6
20260503210411 76 259 3.0 7.0 0.00 0.00 0.00 38 1011.7
20260503205908 76 269 2.0 7.0 0.00 0.00 0.00 36 1011.8
20260503205401 76 252 2.0 8.0 0.00 0.00 0.00 38 1011.9
20260503204854 76 295 2.0 8.0 0.00 0.00 0.00 34 1011.9